Find Turksat 4B

NORAD ID: 40984 Int'l Des: 2015-060 Owner: TURKS Country: TR operational
HEOCIRCULARGSOGEO

現在のビュー

3D地球を読み込み中...

About Turksat 4B

Turksat 4B (NORAD 40984) is a satellite launched Oct 16, 2015 by TURKS of TR. It operates in HEO, CIRCULAR, GSO, GEO orbit with a mass of 4928.00 kg.

次回通過

Passes for default location (London). Set your location on the main map for personalized predictions.

高度履歴

Loading altitude history...

軌道要素

1 40984U 15060A 26194.85609553 .00000110 00000-0 00000+0 0 9991
2 40984 0.0159 47.4889 0002357 72.5536 169.8381 1.00271988 39360
Epoch: Jul 13, 2026 • Age: 9 hours

現在のステータス

高度 35780.9 km
遠地点 / 近地点 N/A
速度 3.08 km/s
衛星直下点 0.01°N, 49.94°E
打ち上げ日 Oct 16, 2015
運用期間 10.7 years
タイプ other

技術仕様

分類 Payload
質量 4928.00 kg
乾燥質量 2500.00 kg
総質量 4928.00 kg
長さ 6.20 m
直径 3.80 m
スパン 25.30 m
形状 Box + 2 pan
製造者 MELCO
バスタイプ DS-2000
フェーズステータス In Orbit
所有者/国 TURKS/TR

Most Searched